Regional Weather Roundup
Issued by NWS Kansas City/Pleasant Hill, MO

Home | Current Version | Previous Version | Graphics & Text | Print | Product List | Glossary Off
Versions: 1 2 3 4 5 6 7 8 9 10 11 12 13 14 15 16 17 18 19 20 21 22 23 24 25 26 27 28 29 30 31 32 33 34 35 36 37 38 39 40 41 42 43 44 45 46 47 48 49 50

000
ASUS43 KEAX 312311
RWREAX

WEATHER ROUNDUP FOR EASTERN KANSAS AND NORTHWEST MISSOURI
NATIONAL WEATHER SERVICE KANSAS CITY/PLEASANT HILL MO
600 PM CDT SUN AUG 31 2014

KSZ040-057-103>105-MOZ028-029-037-043-010000-
...KANSAS CITY METROPOLITAN AREA...

CITY           SKY/WX    TMP DP  RH WIND       PRES   REMARKS
K.C. INTL      PTSUNNY   90  67  46 S22G28    29.73F HX  93
K.C. DOWNTOWN  MOSUNNY   94  65  38 S14G26    29.72F HX  96
LEES SUMMIT    SUNNY     91  65  41 S12G23    29.77F HX  93
OLATHE - IXD   MOSUNNY   94  64  37 S20G30    29.74F HX  95
OLATHE - OJC   MOSUNNY   90  65  43 S17G25    29.74F HX  92
LAWRENCE       MOSUNNY   97  62  31 S16G30    29.71F HX  98

$$

MOZ001>008-011>017-020>025-030>033-038>040-044>046-053-054-010000-
...NORTHERN AND CENTRAL MISSOURI...

CITY           SKY/WX    TMP DP  RH WIND       PRES   REMARKS
ST. JOSEPH     MOSUNNY   90  68  48 S13       29.70F HX  94
MOSBY          CLEAR     90  64  43 SE10      29.74F HX  91
WHITEMAN AFB   SUNNY     91  68  46 S8        29.79F HX  95
CLINTON        SUNNY     93  64  38 S10       29.80F HX  95
SEDALIA        SUNNY     93  63  36 SE12      29.82F HX  94
WARSAW         NOT AVBL
MARSHALL       SUNNY     93  68  43 SE10      29.80F HX  97
CHILLICOTHE      N/A     88  71  57 SE8       29.78F HX  94
MOBERLY        MOSUNNY   90  61  37 SE10      29.85F
KIRKSVILLE     MOSUNNY   86  71  60 SE10      29.84F HX  91

$$

MOZ041-047>049-056>058-063>065-088>090-097-010000-
...EASTERN AND SOUTHERN MISSOURI...

CITY           SKY/WX    TMP DP  RH WIND       PRES   REMARKS
ST. LOUIS INTL MOSUNNY   88  71  57 S12       29.90S HX  94
SPIRIT OF STL  MOSUNNY   86  71  60 SE9       29.88S HX  91
COLUMBIA       MOSUNNY   91  60  35 S14       29.86F HX  90
JEFFERSON CITY MOSUNNY   92  62  36 SE5       29.84F HX  92
MEXICO         MOSUNNY   91  70  49 S10       29.86F HX  97
HANNIBAL       MOSUNNY   88  66  48 SE5       29.87S HX  90
ROLLA          MOSUNNY   87  65  47 S6        29.89F
LEBANON        MOSUNNY   90  64  43 S8        29.91S HX  91
OSAGE BEACH    MOSUNNY   91  61  35 S9        29.86F HX  91
SPRINGFIELD    MOSUNNY   91  66  43 S18       29.88S HX  93
BRANSON        MOSUNNY   91  64  40 SW9G17    29.93F HX  93
JOPLIN         SUNNY     92  64  39 S20G29    29.85S HX  93
WEST PLAINS    SUNNY     88  66  48 S13       29.96S HX  90

$$

IAZ060-094-KSZ022-034>040-054-083-096-NEZ052-066-093-010000-
...KANSAS...SOUTHEAST NEBRASKA AND IOWA...

CITY           SKY/WX    TMP DP  RH WIND       PRES   REMARKS
TOPEKA         SUNNY     95  65  37 S17G28    29.70F HX  97
MANHATTAN      MOSUNNY   95  63  34 S18G28    29.63F HX  96
EMPORIA        SUNNY     94  63  35 S22G36    29.69F HX  95
CHANUTE        SUNNY     93  64  38 S25G36    29.77F HX  94
WICHITA        MOSUNNY   96  61  31 S30G41    29.67F HX  96
OMAHA          CLOUDY    83  73  72 SE15      29.63F
LINCOLN        TSTM      81  75  82 NW15      29.63F
FALLS CITY     MOSUNNY   89  68  49 S14       29.67F HX  93
LAMONI         PTSUNNY   84  72  67 S12G22    29.76F
DES MOINES     CLOUDY    84  73  69 SE10      29.73F HX  90

$$



USA.gov is the U.S. government's official web portal to all federal, state and local government web resources and services.